Cloud_Cover
21 35 88 96 100 99 3 0 0 0 0 0 3 92 28 5 1 0 0 0 0 0 0 0 0 2 5 5 5 5 5 5 5 5 5 5 79 100 100 99 94 98 100 100 74 100 89 100 100
100 99 84 95 74 21 0 0 0 0 0 0 0 0 0 0 0 31 10 1 0 2 0 0 0 0 4 5 4 0 1 3 0 5 5 15 100 100 65 74 100 99 100 100 98 99 64 100 100
28 76 82 61 3 5 0 0 0 0 0 0 0 0 0 0 9 5 0 0 0 7 4 0 0 0 2 5 5 5 5 2 2 5 4 100 64 100 100 80 96 100 100 100 100 100 97 99 79
69 71 32 3 8 2 2 0 0 0 2 0 0 0 0 0 8 5 0 3 0 20 0 0 0 0 0 0 4 5 5 5 0 5 5 100 100 100 100 100 97 100 100 100 100 89 100 100 72
36 5 1 5 0 4 0 0 0 0 0 2 0 1 0 0 0 4 27 57 4 16 2 0 0 0 0 0 0 5 5 2 0 4 20 98 100 100 100 100 100 100 100 100 100 99 100 96 100
11 5 1 5 1 0 0 0 0 0 51 60 78 57 1 1 33 0 21 10 1 46 12 0 0 0 0 0 3 5 5 3 2 0 6 100 100 97 100 100 100 100 100 100 100 100 88 99 100
66 5 4 5 1 0 0 0 0 0 7 10 37 10 1 0 0 2 9 14 2 32 24 14 0 0 2 0 14 5 5 2 1 3 2 100 100 100 100 100 100 97 99 60 60 54 20 61 55
89 5 5 4 3 3 0 2 2 12 3 5 79 4 0 0 0 0 0 29 39 24 17 23 4 0 5 5 5 5 9 2 5 5 5 100 45 96 100 100 94 8 8 63 51 41 88 99 100
12 60 40 0 12 4 58 40 76 4 33 97 66 55 2 0 0 0 28 71 18 18 26 31 14 1 4 64 7 5 5 100 38 34 5 80 72 17 100 71 99 80 51 36 14 27 39 68 97
4 4 0 2 2 1 86 68 5 4 51 100 100 46 5 0 0 0 3 0 2 7 19 25 24 19 12 22 22 51 94 100 100 81 4 28 21 6 10 97 77 26 6 65 34 93 100 100 100
1 9 4 0 0 0 0 0 74 31 30 9 8 6 56 1 0 1 4 0 0 0 0 0 4 6 13 2 24 80 100 100 100 100 82 5 7 8 80 15 5 16 7 82 100 100 100 100 100
4 10 82 13 2 0 0 0 4 3 7 7 87 100 54 5 1 5 2 0 0 0 0 1 3 0 4 17 36 100 66 64 99 100 100 28 30 10 68 84 100 28 15 71 100 100 100 100 100
5 5 5 5 2 0 0 0 0 67 52 25 3 4 44 16 18 15 5 3 0 0 0 0 4 0 1 6 61 100 100 100 100 100 100 100 90 7 5 96 96 100 100 100 100 100 100 100 100
64 5 24 4 0 0 0 0 1 2 5 92 5 0 2 9 92 5 70 13 5 3 0 0 0 0 2 5 58 100 100 100 100 100 100 100 100 98 10 16 96 100 100 100 100 100 100 100 100
73 5 3 2 4 3 0 0 0 3 0 0 5 0 2 0 5 61 61 22 7 55 1 0 0 0 2 5 5 77 100 100 100 100 100 100 100 100 100 44 100 100 66 100 54 63 63 71 100
1 1 0 5 5 3 0 0 0 0 0 2 4 5 5 4 13 0 0 97 69 78 0 0 0 0 5 25 82 99 100 100 100 100 99 100 100 100 93 100 100 100 100 96 90 73 86 93 92
5 4 15 9 5 5 4 4 0 2 87 92 98 6 1 3 2 59 20 97 100 6 0 0 0 2 8 100 100 100 100 100 100 100 87 100 100 99 100 100 66 96 56 42 47 91 100 95 42
93 5 2 5 5 4 4 36 1 16 100 100 95 10 3 10 12 100 92 96 100 1 0 0 0 0 10 81 100 100 100 100 94 100 100 100 100 100 100 100 100 99 100 90 97 91 100 96 88
84 65 2 0 0 0 2 88 5 84 100 40 9 5 5 0 5 7 68 32 5 3 0 0 0 4 30 55 29 100 100 100 65 100 100 100 100 100 100 98 96 100 91 67 72 100 100 100 100
23 20 0 0 0 5 14 94 75 36 87 50 10 20 5 79 26 0 0 0 69 31 0 0 0 41 12 64 13 18 100 100 90 91 100 100 96 67 52 98 100 100 100 97 52 99 78 99 100
5 3 0 1 0 5 70 100 100 61 19 5 93 95 5 5 3 3 5 31 7 68 3 30 88 100 100 5 50 11 100 100 97 72 93 100 100 88 64 54 96 100 100 100 100 96 100 100 100
7 0 0 0 0 2 1 87 100 100 15 66 31 100 20 0 2 4 4 4 6 57 5 100 100 100 100 83 56 1 4 100 100 100 100 97 100 74 100 53 72 86 100 100 100 100 100 100 100
0 0 0 0 0 0 0 48 100 24 5 1 0 0 0 5 0 2 1 5 4 48 66 16 100 100 95 17 10 5 0 38 100 79 80 94 86 98 89 98 35 98 100 100 100 100 100 100 100
0 0 0 0 0 0 0 0 0 0 0 0 0 0 0 5 4 26 5 50 100 100 100 100 100 100 94 79 65 13 0 0 8 98 100 57 95 100 78 100 100 100 100 100 100 100 100 100 100
0 0 0 1 0 0 0 0 0 0 0 0 0 1 2 63 98 100 100 100 100 100 100 100 100 100 68 97 67 8 5 5 12 63 84 90 100 90 46 55 100 100 100 91 100 100 100 100 100
0 0 0 0 0 0 0 0 0 0 2 0 0 0 1 13 46 100 100 100 100 100 100 100 100 100 100 30 23 15 46 20 4 5 98 100 99 100 45 100 100 100 100 98 98 98 100 100 100
0 0 0 0 0 0 0 0 0 11 23 0 0 0 29 25 100 100 100 100 100 100 100 100 99 100 100 68 25 8 58 36 6 26 52 100 100 97 50 34 71 100 100 100 100 100 99 99 93
0 0 0 0 0 0 0 0 1 17 1 0 0 44 91 100 100 100 100 100 100 100 100 100 93 99 67 12 3 5 5 5 5 28 76 98 97 40 24 57 70 94 82 100 100 100 100 100 100
0 0 0 0 0 0 0 0 0 0 0 1 88 100 100 98 100 100 100 100 100 100 100 100 100 49 23 10 5 9 5 5 8 75 93 98 93 93 100 99 81 77 95 100 100 100 100 100 99
0 0 0 0 0 0 0 1 0 2 5 100 100 100 96 100 100 100 100 100 100 100 100 100 100 30 98 96 64 19 5 34 25 97 100 100 96 100 100 93 80 100 100 100 100 100 97 100 94